Tiempo cada hora Abaliget

Hoy, 24 Octubre, Sábado

Tiempo Temperatura Precipitaciones Viento Presión Humedad
00:00 +15°C° 0 mm 4 mps 746 mmHg 73%
01:00 +15°C° 0 mm 4 mps 746 mmHg 74%
02:00 +16°C° 0 mm 3 mps 746 mmHg 75%
03:00 +16°C° 0 mm 3 mps 745 mmHg 75%
04:00 +16°C° 0 mm 3 mps 745 mmHg 75%
05:00 +16°C° 0 mm 3 mps 745 mmHg 76%
06:00 +16°C° 0 mm 3 mps 746 mmHg 76%
07:00 +15°C° 0 mm 2 mps 746 mmHg 77%
08:00 +16°C° 0 mm 3 mps 746 mmHg 73%
09:00 +17°C° 0 mm 3 mps 746 mmHg 69%
10:00 +18°C° 0 mm 3 mps 747 mmHg 65%
11:00 +19°C° 0 mm 3 mps 747 mmHg 65%
12:00 +19°C° 0 mm 3 mps 747 mmHg 65%
13:00 +19°C° 0 mm 3 mps 746 mmHg 65%
14:00 +19°C° 0 mm 2 mps 746 mmHg 68%
15:00 +18°C° 0 mm 2 mps 746 mmHg 72%
16:00 +17°C° 0 mm 2 mps 746 mmHg 75%
17:00 +17°C° 0 mm 2 mps 746 mmHg 79%
18:00 +16°C° 0 mm 1 mps 746 mmHg 82%
19:00 +15°C° 0 mm 1 mps 746 mmHg 86%
20:00 +15°C° 0.3 mm 1 mps 746 mmHg 87%
21:00 +15°C° 0.3 mm 2 mps 746 mmHg 88%
22:00 +15°C° 0.3 mm 2 mps 746 mmHg 88%
23:00 +15°C° 1.3 mm 2 mps 746 mmHg 90%

Mañana, 25 Octubre, Domingo

Tiempo Temperatura Precipitaciones Viento Presión Humedad
00:00 +14°C° 1.3 mm 2 mps 745 mmHg 92%
01:00 +14°C° 1.3 mm 2 mps 745 mmHg 94%
02:00 +14°C° 0.7 mm 2 mps 745 mmHg 94%
03:00 +14°C° 0.7 mm 1 mps 745 mmHg 95%
04:00 +14°C° 0.7 mm 1 mps 744 mmHg 95%
05:00 +13°C° 0.8 mm 1 mps 744 mmHg 95%
06:00 +13°C° 0.8 mm 1 mps 744 mmHg 95%
07:00 +13°C° 0.8 mm 1 mps 744 mmHg 96%
08:00 +13°C° 0.4 mm 1 mps 744 mmHg 95%
09:00 +14°C° 0.4 mm 2 mps 744 mmHg 94%
10:00 +14°C° 0.4 mm 2 mps 744 mmHg 93%
11:00 +14°C° 0.2 mm 2 mps 744 mmHg 93%
12:00 +14°C° 0.2 mm 1 mps 744 mmHg 92%
13:00 +14°C° 0.2 mm 1 mps 744 mmHg 92%
14:00 +14°C° 0 mm 1 mps 744 mmHg 92%
15:00 +14°C° 0 mm 1 mps 743 mmHg 92%
16:00 +13°C° 0 mm 0 mps 743 mmHg 91%
17:00 +13°C° 0 mm 0 mps 743 mmHg 92%
18:00 +12°C° 0 mm 0 mps 744 mmHg 93%
19:00 +12°C° 0 mm 0 mps 744 mmHg 94%
20:00 +12°C° 0 mm 1 mps 744 mmHg 94%
21:00 +12°C° 0 mm 1 mps 743 mmHg 94%
22:00 +12°C° 0 mm 1 mps 743 mmHg 95%
23:00 +12°C° 0 mm 1 mps 743 mmHg 95%

Pasado mañana, 26 Octubre, Lunes

Tiempo Temperatura Precipitaciones Viento Presión Humedad
00:00 +12°C° 0 mm 1 mps 743 mmHg 95%
01:00 +10°C° 0 mm 2 mps 743 mmHg 95%
02:00 +10°C° 0 mm 2 mps 743 mmHg 95%
03:00 +10°C° 0 mm 2 mps 742 mmHg 95%
04:00 +10°C° 0 mm 2 mps 742 mmHg 95%
05:00 +10°C° 0 mm 3 mps 742 mmHg 94%
06:00 +10°C° 0 mm 3 mps 742 mmHg 93%
07:00 +10°C° 0 mm 3 mps 742 mmHg 93%
08:00 +12°C° 0 mm 4 mps 742 mmHg 84%
09:00 +14°C° 0 mm 4 mps 742 mmHg 76%
10:00 +16°C° 0 mm 5 mps 742 mmHg 67%
11:00 +17°C° 0 mm 5 mps 742 mmHg 64%
12:00 +19°C° 0 mm 5 mps 742 mmHg 61%
13:00 +20°C° 0 mm 6 mps 742 mmHg 58%
14:00 +19°C° 0 mm 5 mps 742 mmHg 61%
15:00 +18°C° 0 mm 4 mps 742 mmHg 64%
16:00 +18°C° 0 mm 3 mps 741 mmHg 67%
17:00 +17°C° 0 mm 3 mps 742 mmHg 70%
18:00 +16°C° 0 mm 2 mps 742 mmHg 74%
19:00 +15°C° 0 mm 2 mps 742 mmHg 77%
20:00 +14°C° 0 mm 2 mps 742 mmHg 77%
21:00 +14°C° 0 mm 2 mps 742 mmHg 78%
22:00 +14°C° 0 mm 2 mps 742 mmHg 79%
23:00 +13°C° 0 mm 2 mps 742 mmHg 79%

, 27 Octubre, Martes

Tiempo Temperatura Precipitaciones Viento Presión Humedad
00:00 +13°C° 0 mm 2 mps 742 mmHg 80%
01:00 +13°C° 0 mm 2 mps 742 mmHg 80%
02:00 +12°C° 0 mm 2 mps 742 mmHg 82%
03:00 +12°C° 0 mm 2 mps 742 mmHg 83%
04:00 +12°C° 0 mm 2 mps 742 mmHg 85%
05:00 +12°C° 0 mm 2 mps 742 mmHg 84%
06:00 +12°C° 0 mm 2 mps 742 mmHg 83%
07:00 +12°C° 0 mm 2 mps 742 mmHg 82%
08:00 +14°C° 0 mm 2 mps 742 mmHg 76%
09:00 +16°C° 0 mm 2 mps 742 mmHg 69%
10:00 +17°C° 0 mm 2 mps 742 mmHg 62%
11:00 +18°C° 0 mm 2 mps 742 mmHg 59%
12:00 +19°C° 0 mm 2 mps 742 mmHg 55%
13:00 +20°C° 0 mm 2 mps 741 mmHg 52%
14:00 +19°C° 0 mm 2 mps 742 mmHg 56%
15:00 +18°C° 0 mm 2 mps 742 mmHg 60%
16:00 +18°C° 0 mm 1 mps 742 mmHg 64%
17:00 +16°C° 0 mm 1 mps 742 mmHg 66%
18:00 +16°C° 0 mm 1 mps 742 mmHg 68%
19:00 +15°C° 0 mm 1 mps 743 mmHg 70%
20:00 +14°C° 0 mm 1 mps 743 mmHg 71%
21:00 +14°C° 0 mm 1 mps 743 mmHg 72%
22:00 +13°C° 0 mm 0 mps 743 mmHg 73%
23:00 +12°C° 0 mm 0 mps 744 mmHg 75%

27 Octubre, Martes

Tiempo Temperatura Precipitaciones Viento Presión Humedad
00:00 +13°C° 0 mm 2 mps 742 mmHg 80%
01:00 +13°C° 0 mm 2 mps 742 mmHg 80%
02:00 +12°C° 0 mm 2 mps 742 mmHg 82%
03:00 +12°C° 0 mm 2 mps 742 mmHg 83%
04:00 +12°C° 0 mm 2 mps 742 mmHg 85%
05:00 +12°C° 0 mm 2 mps 742 mmHg 84%
06:00 +12°C° 0 mm 2 mps 742 mmHg 83%
07:00 +12°C° 0 mm 2 mps 742 mmHg 82%
08:00 +14°C° 0 mm 2 mps 742 mmHg 76%
09:00 +16°C° 0 mm 2 mps 742 mmHg 69%
10:00 +17°C° 0 mm 2 mps 742 mmHg 62%
11:00 +18°C° 0 mm 2 mps 742 mmHg 59%
12:00 +19°C° 0 mm 2 mps 742 mmHg 55%
13:00 +20°C° 0 mm 2 mps 741 mmHg 52%
14:00 +19°C° 0 mm 2 mps 742 mmHg 56%
15:00 +18°C° 0 mm 2 mps 742 mmHg 60%
16:00 +18°C° 0 mm 1 mps 742 mmHg 64%
17:00 +16°C° 0 mm 1 mps 742 mmHg 66%
18:00 +16°C° 0 mm 1 mps 742 mmHg 68%
19:00 +15°C° 0 mm 1 mps 743 mmHg 70%
20:00 +14°C° 0 mm 1 mps 743 mmHg 71%
21:00 +14°C° 0 mm 1 mps 743 mmHg 72%
22:00 +13°C° 0 mm 0 mps 743 mmHg 73%
23:00 +12°C° 0 mm 0 mps 744 mmHg 75%

28 Octubre, Miércoles

Tiempo Temperatura Precipitaciones Viento Presión Humedad
00:00 +13°C° 0 mm 1 mps 744 mmHg 77%
01:00 +13°C° 0 mm 1 mps 744 mmHg 79%
02:00 +12°C° 0 mm 1 mps 744 mmHg 82%
03:00 +12°C° 0 mm 1 mps 744 mmHg 84%
04:00 +11°C° 0 mm 1 mps 744 mmHg 86%
05:00 +11°C° 0 mm 1 mps 744 mmHg 87%
06:00 +11°C° 0 mm 1 mps 745 mmHg 88%
07:00 +11°C° 0 mm 1 mps 745 mmHg 89%
08:00 +13°C° 0 mm 1 mps 745 mmHg 82%
09:00 +14°C° 0 mm 1 mps 745 mmHg 76%
10:00 +16°C° 0 mm 1 mps 746 mmHg 69%
11:00 +18°C° 0 mm 1 mps 746 mmHg 66%
12:00 +19°C° 0 mm 1 mps 745 mmHg 62%
13:00 +19°C° 0 mm 1 mps 745 mmHg 59%
14:00 +19°C° 0 mm 1 mps 745 mmHg 62%
15:00 +18°C° 0 mm 1 mps 745 mmHg 65%
16:00 +18°C° 0 mm 1 mps 745 mmHg 68%
17:00 +16°C° 0 mm 1 mps 745 mmHg 72%
18:00 +15°C° 0 mm 1 mps 745 mmHg 76%
19:00 +13°C° 0 mm 0 mps 746 mmHg 79%
20:00 +12°C° 0 mm 0 mps 746 mmHg 81%
21:00 +12°C° 0 mm 0 mps 746 mmHg 83%
22:00 +12°C° 0 mm 0 mps 746 mmHg 84%
23:00 +11°C° 0 mm 0 mps 746 mmHg 86%

29 Octubre, Jueves

Tiempo Temperatura Precipitaciones Viento Presión Humedad
00:00 +11°C° 0 mm 0 mps 746 mmHg 87%
01:00 +11°C° 0 mm 0 mps 746 mmHg 88%
02:00 +12°C° 0 mm 1 mps 746 mmHg 89%
03:00 +12°C° 0 mm 1 mps 746 mmHg 90%
04:00 +11°C° 0 mm 1 mps 746 mmHg 90%
05:00 +11°C° 0 mm 1 mps 747 mmHg 91%
06:00 +11°C° 0 mm 1 mps 747 mmHg 91%
07:00 +11°C° 0 mm 1 mps 747 mmHg 92%
08:00 +13°C° 0 mm 1 mps 747 mmHg 85%
09:00 +14°C° 0 mm 1 mps 748 mmHg 79%
10:00 +16°C° 0 mm 2 mps 748 mmHg 72%
11:00 +17°C° 0 mm 2 mps 748 mmHg 70%
12:00 +17°C° 0 mm 2 mps 749 mmHg 68%
13:00 +18°C° 0 mm 2 mps 749 mmHg 66%
14:00 +17°C° 0 mm 2 mps 749 mmHg 68%
15:00 +17°C° 0 mm 2 mps 749 mmHg 70%
16:00 +16°C° 0 mm 1 mps 749 mmHg 72%
17:00 +15°C° 0 mm 1 mps 750 mmHg 75%
18:00 +15°C° 0 mm 1 mps 750 mmHg 78%
19:00 +14°C° 0 mm 1 mps 751 mmHg 82%
20:00 +13°C° 0 mm 1 mps 751 mmHg 83%
21:00 +13°C° 0 mm 1 mps 751 mmHg 85%
22:00 +12°C° 0 mm 1 mps 752 mmHg 87%
23:00 +12°C° 0 mm 1 mps 752 mmHg 87%
Mostrar más

Necesitamos Su Consentimiento

Meteoprog y nuestros Proveedores de Servicios pueden almacenar y acceder a sus datos personales como cookies, identificadores de dispositivo u otras tecnologías similares de su dispositivo y procesar dichos datos para personalizar contenido y anuncios, además de ofrecer funciones de redes sociales y analizar el tráfico.

  • Almacenar y/o acceder a información en su dispositivo

    Se puede almacenar o acceder a cookies, identificadores de dispositivo u otra información de su dispositivo para los fines anteriormente indicados.

  • Anuncios y contenido personalizados, medición de anuncios y contenido, percepciones del público, y desarrollo de productos

    Los anuncios y el contenido pueden personalizarse en base a su perfil. Se pueden añadir más datos para personalizar mejor los anuncios y contenidos. Se puede medir el rendimiento de los anuncios y contenidos. Se puede obtener la percepción sobre el público que ha visto los anuncios y contenidos. Dichos datos pueden usarse para desarrollar o mejorar la experiencia del usuario, sistemas y software.

Al hacer clic en ‘Estoy De Acuerdo’ usted permitirá el uso de las cookies, identificadores de dispositivo, balizas web u otras tecnologías similares indicadas. Su configuración puede cambiarse desde el navegador de su dispositivo.

Para ciertos fines, los intereses legítimos pueden ser considerados por encima del consentimiento. Puede leer más sobre ello en nuestra Política de Privacidad y Cookies.